Weather reports worldwide

Advertisment
Keswick, United Kingdom (3212): temperature & dewpoint: 17.10.2020 06:00:00 - 23.10.2020 06:00:00 (BST)Keswick, United Kingdom (3212): temperature -20cm: 17.10.2020 06:00:00 - 23.10.2020 06:00:00 (BST)Keswick, United Kingdom (3212): wind speed: 17.10.2020 06:00:00 - 23.10.2020 06:00:00 (BST)Keswick, United Kingdom (3212): wind direction: 17.10.2020 06:00:00 - 23.10.2020 06:00:00 (BST)Keswick, United Kingdom (3212): reduced air pressure: 17.10.2020 06:00:00 - 23.10.2020 06:00:00 (BST)Keswick, United Kingdom (3212): visibility: 17.10.2020 06:00:00 - 23.10.2020 06:00:00 (BST)Keswick, United Kingdom (3212): precipitation: 17.10.2020 06:00:00 - 23.10.2020 06:00:00 (BST)
Date & Time tt [°C] td [°C] tt -20cm [°C] ff [km/h] ff [kn] dd ppp [hPa] vv [km] rr [mm]
23.10.2020 06:00:00 9,5 5,3 - 13 7 SSW 1002,6 35 0,0
23.10.2020 05:00:00 8,8 5,0 - 2 1 WNW 1003,1 40 0,0
23.10.2020 04:00:00 9,2 5,2 - 5 3 S 1003,6 50 0,0
23.10.2020 03:00:00 8,7 4,6 - 4 2 WSW 1004,3 45 0,0
23.10.2020 02:00:00 8,2 5,2 - 4 2 E 1005,0 50 0,0
23.10.2020 01:00:00 7,6 5,7 - 4 2 NE 1005,5 45 0,0
23.10.2020 00:00:00 7,4 5,9 - 2 1 N 1005,9 50 0,0
22.10.2020 23:00:00 7,0 6,2 - 2 1 NW 1006,2 45 0,0
22.10.2020 22:00:00 7,0 6,5 - 2 1 ENE 1006,5 45 0,0
22.10.2020 21:00:00 7,6 5,9 - 2 1 WNW 1006,5 35 0,0
22.10.2020 20:00:00 8,6 6,6 - 4 2 WSW 1006,5 45 0,2
22.10.2020 19:00:00 8,9 8,2 - 8 4 W 1006,1 13 0,2
22.10.2020 18:00:00 9,1 8,4 - 8 4 WNW 1005,5 45 0,6
22.10.2020 17:00:00 9,3 8,8 - 11 6 W 1005,0 5 0,4
22.10.2020 16:00:00 9,7 9,0 - 13 7 W 1004,3 8 0,6
22.10.2020 15:00:00 10,4 9,8 - 13 7 W 1003,4 7 0,8
22.10.2020 14:00:00 11,0 9,7 - 11 6 W 1003,0 10 0,2
22.10.2020 13:00:00 10,9 9,7 - 9 5 W 1002,6 50 0,2
22.10.2020 12:00:00 10,7 9,8 - 11 6 W 1002,1 5 0,2
22.10.2020 11:00:00 10,8 10,0 - 9 5 W 1001,3 35 0,0
22.10.2020 10:00:00 10,9 10,0 11,7 11 6 W 1000,7 23 0,0
22.10.2020 09:00:00 10,8 10,3 - 11 6 W 999,7 35 0,2
22.10.2020 08:00:00 11,0 10,7 - 8 4 W 998,5 40 1,4
22.10.2020 07:00:00 11,1 10,8 - 9 5 W 997,5 26 0,6
22.10.2020 06:00:00 10,4 10,3 - 15 8 WSW 997,2 4,2 0,2
22.10.2020 05:00:00 10,2 9,3 - 15 8 WSW 996,7 4,8 0,0
22.10.2020 04:00:00 9,8 8,6 - 13 7 SW 996,6 8 0,0
22.10.2020 03:00:00 9,5 8,0 - 8 4 S 996,8 9 0,0
22.10.2020 02:00:00 9,7 7,2 - 18 10 SW 997,0 40 0,0
22.10.2020 01:00:00 9,8 7,0 - 4 2 WSW 996,7 35 0,0
22.10.2020 00:00:00 10,0 7,4 - 8 4 WSW 996,5 16 0,0
21.10.2020 23:00:00 10,7 7,2 - 8 4 WSW 996,2 45 0,0
21.10.2020 22:00:00 10,9 8,2 - 8 4 WSW 995,9 45 0,0
21.10.2020 21:00:00 11,0 9,2 - 4 2 W 995,3 50 0,2
21.10.2020 20:00:00 12,1 9,7 - 5 3 SW 994,3 29 0,0
21.10.2020 19:00:00 11,7 11,0 - 4 2 W 993,9 18 0,2
21.10.2020 18:00:00 12,2 10,7 - 4 2 SE 992,9 8 0,0
21.10.2020 17:00:00 13,2 10,2 - 9 5 WSW 992,2 50 0,0
21.10.2020 16:00:00 14,7 10,5 - 9 5 WSW 992,0 30 0,0
21.10.2020 15:00:00 15,2 9,4 - 8 4 SSE 991,6 30 0,0
21.10.2020 14:00:00 15,0 10,4 - 4 2 SW 991,9 26 0,0
21.10.2020 13:00:00 15,5 10,9 - 8 4 SSE 991,4 24 0,0
21.10.2020 12:00:00 14,3 11,8 - 5 3 E 991,7 35 0,0
21.10.2020 11:00:00 12,9 12,9 - 4 2 E 991,8 15 1,0
21.10.2020 10:00:00 12,8 12,6 11,4 4 2 E 992,1 5 0,6
21.10.2020 09:00:00 13,1 12,0 - 8 4 E 992,2 50 0,0
21.10.2020 08:00:00 13,5 11,3 - 8 4 SE 992,2 11 0,0
21.10.2020 07:00:00 13,5 11,0 - 5 3 E 992,0 50 0,0
21.10.2020 06:00:00 13,6 10,8 - 8 4 SE 992,0 40 0,0
21.10.2020 05:00:00 13,5 10,7 - 9 5 ESE 992,7 35 0,0
21.10.2020 04:00:00 13,8 10,7 - 9 5 SE 993,4 35 0,0
21.10.2020 03:00:00 13,1 10,8 - 9 5 ESE 993,9 30 0,0
21.10.2020 02:00:00 13,1 10,5 - 9 5 ESE 994,3 30 0,0
21.10.2020 01:00:00 13,5 10,1 - 8 4 ESE 994,2 30 0,0
21.10.2020 00:00:00 13,9 9,5 - 13 7 S 994,3 27 0,0
20.10.2020 23:00:00 14,5 9,0 - 15 8 S 994,2 40 0,0
20.10.2020 22:00:00 14,5 9,6 - 15 8 S 994,2 30 0,0
20.10.2020 21:00:00 14,3 10,1 - 9 5 SSE 993,9 29 0,0
20.10.2020 20:00:00 14,6 10,1 - 11 6 SSE 993,6 35 0,0
20.10.2020 19:00:00 14,4 9,7 - 9 5 SE 993,4 24 0,0
20.10.2020 18:00:00 14,3 10,4 - 11 6 SE 993,4 20 0,0
20.10.2020 17:00:00 13,2 11,3 - 9 5 E 993,3 20 0,8
20.10.2020 16:00:00 13,9 11,3 - 8 4 SE 993,6 13 0,6
20.10.2020 15:00:00 14,0 11,5 - 8 4 SE 993,7 10 0,2
20.10.2020 14:00:00 15,9 10,3 - 13 7 SSE 993,7 35 0,0
20.10.2020 13:00:00 16,1 11,5 - 13 7 S 994,0 20 0,0
20.10.2020 12:00:00 15,1 11,8 - 8 4 SE 994,4 35 0,0
20.10.2020 11:00:00 13,6 11,3 - 8 4 ESE 994,6 35 0,0
20.10.2020 10:00:00 12,3 11,5 11,0 5 3 E 994,6 20 0,0
20.10.2020 09:00:00 11,6 11,0 - 9 5 ENE 994,8 28 0,0
20.10.2020 08:00:00 10,8 10,5 - 8 4 E 994,5 50 1,2
20.10.2020 07:00:00 10,5 10,1 - 9 5 ESE 994,4 7 1,0
20.10.2020 06:00:00 10,5 9,4 - 11 6 SE 994,8 11 0,2
20.10.2020 05:00:00 10,8 8,3 - 15 8 ESE 995,4 24 0,0
20.10.2020 04:00:00 11,0 7,6 - 8 4 SE 996,3 35 0,0
20.10.2020 03:00:00 11,2 7,3 - 9 5 ESE 997,5 40 0,0
20.10.2020 02:00:00 11,0 7,2 - 13 7 ESE 999,2 45 0,0
20.10.2020 01:00:00 10,8 7,0 - 11 6 E 1000,4 45 0,0
20.10.2020 00:00:00 10,7 7,6 - 9 5 ESE 1001,3 40 0,0
19.10.2020 23:00:00 10,4 8,1 - 9 5 E 1001,8 14 0,2
19.10.2020 22:00:00 10,4 8,3 - 16 9 E 1002,5 15 0,0
19.10.2020 21:00:00 11,0 8,7 - 11 6 ESE 1003,4 14 0,0
19.10.2020 20:00:00 11,5 9,0 - 16 9 ESE 1004,2 15 0,0
19.10.2020 19:00:00 11,9 8,9 - 15 8 SE 1004,5 19 0,0
19.10.2020 18:00:00 11,6 8,7 - 13 7 SE 1005,3 19 0,0
19.10.2020 17:00:00 11,5 8,6 - 16 9 SE 1006,1 17 0,0
19.10.2020 16:00:00 11,6 8,5 - 15 8 SE 1006,7 20 0,0
19.10.2020 15:00:00 11,5 8,7 - 13 7 ESE 1007,9 18 0,0
19.10.2020 14:00:00 11,3 8,7 - 13 7 ESE 1008,8 19 0,0
19.10.2020 13:00:00 10,9 8,8 - 11 6 ESE 1010,1 14 0,0
19.10.2020 12:00:00 10,6 8,3 - 15 8 ESE 1010,8 16 0,0
19.10.2020 11:00:00 10,1 8,0 - 15 8 ESE 1011,5 15 0,0
19.10.2020 10:00:00 10,0 8,0 10,9 13 7 E 1011,7 19 0,0
19.10.2020 09:00:00 10,2 8,2 - 11 6 E 1012,2 20 0,0
19.10.2020 08:00:00 10,4 8,7 - 15 8 E 1012,7 18 0,0
19.10.2020 07:00:00 10,8 9,0 - 11 6 SSE 1012,9 22 0,0
19.10.2020 06:00:00 10,6 9,5 - 11 6 SE 1013,8 25 0,2
19.10.2020 05:00:00 11,3 9,9 - 8 4 SE 1014,4 13 0,2
19.10.2020 04:00:00 10,5 10,3 - 4 2 E 1015,1 11 0,4
19.10.2020 03:00:00 10,4 10,2 - 4 2 ESE 1016,2 9 1,4
19.10.2020 02:00:00 10,2 10,1 - 5 3 ESE 1016,9 7 0,8
19.10.2020 01:00:00 10,5 9,6 - 4 2 E 1017,2 26 0,0
19.10.2020 00:00:00 10,0 8,9 - 2 1 E 1017,7 30 0,0
18.10.2020 23:00:00 10,2 8,8 - 4 2 ENE 1018,2 35 0,0
18.10.2020 22:00:00 8,8 8,1 - 2 1 ENE 1018,6 45 0,0
18.10.2020 21:00:00 8,7 7,5 - 4 2 E 1019,4 35 0,0
18.10.2020 20:00:00 8,6 7,2 - 4 2 ENE 1019,9 45 0,0
18.10.2020 19:00:00 9,4 7,7 - 4 2 E 1020,4 50 0,0
18.10.2020 18:00:00 9,8 8,1 - 8 4 ESE 1020,4 45 0,0
18.10.2020 17:00:00 10,0 8,1 - 2 1 ENE 1020,8 50 0,0
18.10.2020 16:00:00 10,5 7,9 - 4 2 ENE 1021,3 45 0,0
18.10.2020 15:00:00 10,5 7,5 - 4 2 ESE 1021,7 45 0,0
18.10.2020 14:00:00 9,9 8,3 - 4 2 SSW 1022,6 35 0,0
18.10.2020 13:00:00 8,4 7,5 - 4 2 E 1023,5 22 0,4
18.10.2020 12:00:00 8,7 6,7 - 4 2 ESE 1024,2 14 0,0
18.10.2020 11:00:00 8,4 6,4 - 4 2 SE 1024,4 50 0,0
18.10.2020 10:00:00 7,9 6,4 10,9 4 2 E 1024,6 45 0,0
18.10.2020 09:00:00 7,3 6,2 - 0 0 N 1024,6 50 0,0
18.10.2020 08:00:00 7,3 5,9 - 2 1 NE 1024,4 45 0,0
18.10.2020 07:00:00 7,8 5,7 - 2 1 E 1024,3 50 0,0
18.10.2020 06:00:00 7,5 6,0 - 5 3 ESE 1024,2 50 0,0
18.10.2020 05:00:00 7,7 6,4 - 4 2 SE 1024,6 50 0,0
18.10.2020 04:00:00 7,9 6,0 - 2 1 WSW 1025,0 50 0,0
18.10.2020 03:00:00 7,6 6,7 - 2 1 ESE 1025,2 50 0,0
18.10.2020 02:00:00 7,6 7,0 - 4 2 SW 1025,5 50 0,0
18.10.2020 01:00:00 8,6 7,3 - 0 0 N 1025,7 50 0,0
18.10.2020 00:00:00 9,1 7,4 - 4 2 S 1025,5 45 0,0
17.10.2020 23:00:00 9,6 7,4 - 2 1 ENE 1025,3 50 0,0
17.10.2020 22:00:00 9,8 7,8 - 2 1 N 1025,1 50 0,0
17.10.2020 21:00:00 10,0 7,8 - 4 2 SE 1024,9 30 0,0
17.10.2020 20:00:00 10,3 7,7 - 4 2 ENE 1024,8 50 0,0
17.10.2020 19:00:00 10,5 8,0 - 5 3 ENE 1024,4 50 0,0
17.10.2020 18:00:00 10,7 8,6 - 4 2 E 1024,1 45 0,0
17.10.2020 17:00:00 11,0 9,1 - 2 1 W 1024,1 40 0,0
17.10.2020 16:00:00 11,4 9,0 - 4 2 NE 1024,2 40 0,0
17.10.2020 15:00:00 11,3 8,9 - 2 1 NNE 1024,3 50 0,0
17.10.2020 14:00:00 11,1 8,5 - 2 1 SSW 1024,3 50 0,0
17.10.2020 13:00:00 10,2 8,9 - 2 1 WNW 1024,7 21 0,0
17.10.2020 12:00:00 9,2 8,5 - 2 1 WNW 1025,0 40 0,0
17.10.2020 11:00:00 8,7 8,1 - 2 1 WNW 1025,1 40 0,0
17.10.2020 10:00:00 8,1 7,6 10,7 2 1 NW 1025,0 50 0,0
17.10.2020 09:00:00 8,0 7,3 - 4 2 W 1024,9 50 0,0
17.10.2020 08:00:00 7,5 6,8 - 2 1 NW 1025,0 50 0,0
17.10.2020 07:00:00 7,9 6,3 - 4 2 E 1025,0 50 0,0
17.10.2020 06:00:00 8,2 6,0 - 5 3 ENE 1025,1 50 0,0

tt = temperature
td = dewpoint
tt -20cm = temperature -20cm
ff = wind speed
dd = wind direction
ppp = reduced air pressure
vv = visibility
rr = precipitation

Next stations